EW8486 Weather Reports


Display with metric or nautical units.
time (UTC)temp
F
wind
direction
speed
MPH
gust
MPH
rain 1hr
in
rain 24hr
in
rain mn
in
humidity
%
barometer
mb
20260507090516 61 270 5.0 13.0 0.00 0.00 0.00 49 1015.5
20260507085016 61 203 3.0 8.0 0.00 0.00 0.00 49 1015.2
20260507083516 61 270 4.0 11.0 0.00 0.00 0.00 49 1015.1
20260507082057 62 270 4.0 8.0 0.00 0.00 0.00 48 1015.0
20260507080516 63 270 5.0 12.0 0.00 0.00 0.00 47 1014.9
20260507075017 62 293 4.0 11.0 0.00 0.00 0.00 48 1014.6
20260507073516 62 270 5.0 12.0 0.00 0.00 0.00 48 1014.4
20260507072016 62 248 2.0 8.0 0.00 0.00 0.00 48 1014.3
20260507070517 62 270 3.0 11.0 0.00 0.00 0.00 48 1014.0
20260507065015 63 270 5.0 15.0 0.00 0.00 0.00 46 1014.0
20260507063517 63 270 5.0 15.0 0.00 0.00 0.00 47 1013.7
20260507062017 64 315 4.0 12.0 0.00 0.00 0.00 46 1013.5
20260507060517 63 0 5.0 14.0 0.00 0.00 0.00 47 1013.4
20260507055017 64 225 3.0 8.0 0.00 0.00 0.00 45 1013.6
20260507053517 65 338 4.0 11.0 0.00 0.00 0.00 45 1013.2
20260507052017 66 270 5.0 14.0 0.00 0.00 0.00 43 1012.8
20260507050517 66 248 2.0 9.0 0.00 0.00 0.00 43 1012.5
20260507045037 67 248 2.0 7.0 0.00 0.00 0.00 42 1012.2
20260507043517 67 248 2.0 4.0 0.00 0.00 0.00 43 1012.5
20260507042037 67 270 3.0 9.0 0.00 0.00 0.00 43 1012.1
20260507040517 68 293 3.0 11.0 0.00 0.00 0.00 42 1012.0
20260507035017 68 0 4.0 10.0 0.00 0.00 0.00 41 1011.9
20260507033517 69 270 3.0 9.0 0.00 0.00 0.00 39 1011.4
20260507032037 69 248 2.0 5.0 0.00 0.00 0.00 40 1011.2
20260507030516 69 68 1.0 3.0 0.00 0.00 0.00 42 1010.9
20260507025017 68 248 1.0 3.0 0.00 0.00 0.00 43 1010.6
20260507023517 70 180 2.0 5.0 0.00 0.00 0.00 40 1010.3
20260507022017 72 180 7.0 16.0 0.00 0.00 0.00 38 1010.1
20260507020516 73 180 7.0 18.0 0.00 0.00 0.00 37 1010.0
20260507015017 74 180 8.0 16.0 0.00 0.00 0.00 35 1009.9
20260507013517 73 270 4.0 10.0 0.00 0.00 0.00 35 1009.9
20260507012017 75 180 4.0 11.0 0.00 0.00 0.00 36 1009.5
20260507010517 75 180 7.0 17.0 0.00 0.00 0.00 35 1009.6
20260507005017 76 180 8.0 23.0 0.00 0.00 0.00 34 1009.6
20260507003517 76 180 10.0 23.0 0.00 0.00 0.00 33 1009.6
20260507002036 77 180 7.0 16.0 0.00 0.00 0.00 34 1009.7
20260507000516 79 180 4.0 11.0 0.00 0.00 0.00 31 1009.7
20260506235017 79 203 6.0 14.0 0.00 0.00 0.00 30 1009.5
20260506233516 80 180 8.0 21.0 0.00 0.00 0.00 30 1009.6
20260506232016 80 180 7.0 16.0 0.00 0.00 0.00 29 1009.5
20260506230516 82 0 3.0 9.0 0.00 0.00 0.00 25 1009.7
20260506225016 81 180 10.0 21.0 0.00 0.00 0.00 24 1009.8
20260506223516 82 203 8.0 18.0 0.00 0.00 0.00 25 1009.5
20260506222017 82 180 9.0 18.0 0.00 0.00 0.00 29 1009.5
20260506220516 81 180 10.0 21.0 0.00 0.00 0.00 29 1009.5
20260506215036 81 203 6.0 15.0 0.00 0.00 0.00 29 1009.7
20260506213536 82 180 8.0 14.0 0.00 0.00 0.00 30 1009.8
20260506212016 82 180 8.0 15.0 0.00 0.00 0.00 31 1009.9
20260506210536 83 203 9.0 16.0 0.00 0.00 0.00 28 1009.8
20260506205016 83 180 8.0 16.0 0.00 0.00 0.00 30 1009.9
20260506203516 78 158 1.0 4.0 0.00 0.00 0.00 37 1009.8
20260506202016 77 158 3.0 5.0 0.00 0.00 0.00 37 1010.0
20260506200516 77 203 1.0 4.0 0.00 0.00 0.00 38 1010.3
20260506195016 75 180 1.0 3.0 0.00 0.00 0.00 40 1010.5
20260506193536 71 158 2.0 4.0 0.00 0.00 0.00 44 1010.7
20260506192016 68 158 1.0 2.0 0.00 0.00 0.00 50 1010.7
20260506190516 69 180 2.0 5.0 0.00 0.00 0.00 48 1011.0
20260506185036 67 158 3.0 4.0 0.00 0.00 0.00 50 1011.1
20260506183516 68 180 1.0 5.0 0.00 0.00 0.00 50 1011.2
20260506182036 67 180 2.0 3.0 0.00 0.00 0.00 46 1011.5
20260506180515 68 158 1.0 2.0 0.00 0.00 0.00 46 1011.6
20260506175036 66 158 2.0 4.0 0.00 0.00 0.00 46 1011.9
20260506173515 65 158 2.0 3.0 0.00 0.00 0.00 45 1012.1
20260506172016 63 158 2.0 5.0 0.00 0.00 0.00 49 1012.4
20260506170515 64 135 2.0 4.0 0.00 0.00 0.00 53 1012.6
20260506165016 63 158 1.0 4.0 0.00 0.00 0.00 52 1012.4
20260506163535 61 158 2.0 5.0 0.00 0.00 0.00 56 1012.4
20260506162016 61 135 2.0 3.0 0.00 0.00 0.00 55 1012.7
20260506160516 61 135 1.0 3.0 0.00 0.00 0.00 57 1012.9
20260506155015 61 135 1.0 3.0 0.00 0.00 0.00 53 1013.1
20260506153536 60 135 2.0 3.0 0.00 0.00 0.00 58 1013.2
20260506152016 60 135 1.0 3.0 0.00 0.00 0.00 54 1013.3
20260506150515 60 90 1.0 3.0 0.00 0.00 0.00 59 1013.6
20260506145016 59 90 1.0 2.0 0.00 0.00 0.00 61 1013.7
20260506143515 58 180 1.0 3.0 0.00 0.00 0.00 63 1013.7
20260506142035 59 203 1.0 2.0 0.00 0.00 0.00 62 1013.9
20260506140515 58 0.0 1.0 0.00 0.00 0.00 58 1013.9
20260506135035 57 0.0 0.0 0.00 0.00 0.00 60 1013.9
20260506133537 56 0.0 2.0 0.00 0.00 0.00 63 1013.6
20260506132017 55 0.0 0.0 0.00 0.00 0.00 63 1013.3
20260506130537 54 0.0 1.0 0.00 0.00 0.00 64 1013.0
20260506125017 53 203 1.0 2.0 0.00 0.00 0.00 63 1013.1
20260506123517 54 0.0 0.0 0.00 0.00 0.00 62 1013.2
20260506122017 54 0.0 0.0 0.00 0.00 0.00 61 1013.1
20260506120517 54 0.0 0.0 0.00 0.00 0.00 61 1013.0
20260506115037 54 0.0 0.0 0.00 0.00 0.00 62 1013.0
20260506113517 54 0.0 0.0 0.00 0.00 0.00 61 1012.9
20260506112017 54 0.0 0.0 0.00 0.00 0.00 61 1012.9
20260506110517 55 0.0 0.0 0.00 0.00 0.00 60 1012.7
20260506105037 56 0.0 0.0 0.00 0.00 0.00 57 1012.4
20260506103537 56 0.0 0.0 0.00 0.00 0.00 58 1012.2
20260506102037 56 0.0 0.0 0.00 0.00 0.00 58 1012.2
20260506100517 56 0.0 0.0 0.00 0.00 0.00 57 1012.2
20260506095037 56 0.0 1.0 0.00 0.00 0.00 57 1012.1
20260506093516 57 0.0 1.0 0.00 0.00 0.00 58 1012.0
20260506092016 58 0.0 1.0 0.00 0.00 0.00 55 1012.0